Location: Milevsko
(49.4500°N, 14.3670°E)
Time: 20:40:29
(UTC+02:00)

ISS - Pass Details

Date: 19 July 2018
Orbit: 402 x 408 km, 51.6° (Epoch: 17 July)

Event Time Altitude Azimuth Distance (km) Brightness Sun altitude
Rises 03:06:21 0° 286° (WNW) 2,330 -0.1 -15.0°
Reaches altitude 10° 03:08:26 10° 288° (WNW) 1,469 -1.1 -14.8°
Maximum altitude 03:11:44 78° 15° (NNE) 420 -3.7 -14.6°
Drops below altitude 10° 03:15:01 10° 103° (ESE) 1,467 -0.8 -14.3°
Sets 03:17:07 0° 105° (ESE) 2,327 0.2 -14.1°
